Location: Albshausen
(50.5426°N, 8.4376°E)
Time: 09:41:09
(UTC+00:00)

Daily predictions for brighter satellites

Satellite Brightness Start Highest point End
(mag) Time Altitude Azimuth Time Altitude Azimuth Time Altitude Azimuth
Okean 3 3.7 20:06:04 10° SSW 20:10:23 82° WNW 20:14:43 10° N
SAR-Lupe-2 4.4 20:07:08 10° NNE 20:10:27 33° E 20:13:44 10° SSE
STARLINK-1271 4.1 20:06:55 10° W 20:11:03 67° N 20:15:11 10° ENE
Cosmos 2369 Rocket 3.9 20:08:48 10° SE 20:11:40 14° E 20:14:31 10° ENE
STARLINK-1104 3.6 20:07:37 10° WNW 20:11:47 81° SSW 20:15:56 10° ESE
STARLINK-1212 3.7 20:10:05 10° WNW 20:13:08 51° N 20:16:11 10° E
STARLINK-1230 3.6 20:09:09 10° SW 20:13:15 68° SSE 20:17:24 10° ENE
STARLINK-1105 3.7 20:10:33 10° WNW 20:13:36 51° N 20:16:39 10° E
NOSS 2-2 (C) 4.5 20:11:38 10° SSE 20:14:21 21° ESE 20:17:17 10° ENE
STARLINK-1247 3.7 20:11:26 10° WNW 20:14:29 51° N 20:17:33 10° E
STARLINK-1227 3.7 20:11:56 10° WNW 20:14:58 51° N 20:18:02 10° E
STARLINK-1226 3.7 20:12:47 10° WNW 20:15:51 51° N 20:18:54 10° E
STARLINK-1154 4.1 20:11:53 10° W 20:16:02 66° N 20:20:10 10° ENE
SL-4 R/B 3.7 20:14:30 10° WNW 20:16:34 17° WSW 20:18:33 10° SSW
STARLINK-1215 3.7 20:13:41 10° WNW 20:16:45 51° N 20:19:49 10° E
STARLINK-1144 3.6 20:12:36 10° WNW 20:16:46 78° SSW 20:20:54 10° ESE
STARLINK-1243 3.6 20:14:07 10° WSW 20:18:15 72° SSE 20:22:24 10° ENE
Cosmos 2221 Rocket 3.9 20:13:45 10° SSW 20:18:17 75° WNW 20:22:52 10° N
STARLINK-1217 3.7 20:15:30 10° WNW 20:18:34 51° N 20:21:38 10° E
NOSS 3-2 (A) 4.3 20:11:35 10° NW 20:18:47 66° NE 20:27:01 10° ESE
STARLINK-1229 3.7 20:16:25 10° WNW 20:19:29 51° N 20:22:33 10° E
SPOT 5 3.7 20:14:53 10° SE 20:19:50 44° ENE 20:24:55 10° N
STARLINK-1270 3.7 20:17:18 10° WNW 20:20:23 51° N 20:23:26 10° E
STARLINK-1197 4.1 20:16:52 10° W 20:21:00 65° N 20:25:08 10° ENE
NOSS 8 (F) 4.2 20:18:21 10° SSW 20:21:29 55° SE 20:24:29 10° NE
STARLINK-1103 3.6 20:17:35 10° WNW 20:21:44 74° SSW 20:25:52 10° ESE
Meteor 1-13 Rocket 4.3 20:16:18 10° S 20:21:57 83° E 20:27:45 10° NNE
STARLINK-1189 3.7 20:19:06 10° WNW 20:22:10 52° N 20:25:14 10° E
STARLINK-1188 3.7 20:20:01 10° WNW 20:23:05 52° N 20:26:10 10° E
STARLINK-1236 3.6 20:19:04 10° WSW 20:23:12 75° SSE 20:27:22 10° ENE
STARLINK-1187 3.6 20:21:07 10° WNW 20:24:10 52° N 20:27:13 10° E
ERS-1 Rocket 3.4 20:20:07 10° SE 20:24:59 53° ENE 20:29:54 10° N
STARLINK-1191 3.7 20:22:28 10° WNW 20:25:31 52° N 20:28:34 10° E
STARLINK-1198 4.1 20:21:52 10° W 20:26:00 64° N 20:30:07 10° ENE
STARLINK-1221 3.7 20:23:25 10° WNW 20:26:29 52° N 20:29:32 10° E
STARLINK-1101 3.7 20:22:34 10° WNW 20:26:42 70° SSW 20:30:50 10° ESE
STARLINK-1222 3.7 20:24:17 10° WNW 20:27:20 52° N 20:30:23 10° E
STARLINK-1214 3.7 20:25:10 10° WNW 20:28:14 52° N 20:31:17 10° E
Cosmos 1066 Rocket 4.3 20:24:24 10° S 20:29:36 53° E 20:34:49 10° NNE
USA 238 DEB 4.1 20:23:37 10° NW 20:30:46 71° NE 20:38:10 10° SE
USA 238 4.1 20:23:43 10° NW 20:30:52 71° NE 20:38:17 10° SE
STARLINK-1199 4.2 20:26:53 10° W 20:31:00 63° N 20:35:07 10° ENE
USA 245 2.5 20:28:25 10° S 20:31:20 74° WSW 20:33:50 10° NNW
STARLINK-1102 3.7 20:27:33 10° WNW 20:31:41 67° SSW 20:35:47 10° SE
STARLINK-1228 3.7 20:29:14 10° WNW 20:32:42 60° N 20:36:11 10° E
STARLINK-1269 3.6 20:29:01 10° WSW 20:33:10 83° SSE 20:37:20 10° ENE
Okean 1 Rocket 3.1 20:28:50 10° N 20:33:19 70° ENE 20:37:44 10° SSE
Cosmos 1805 3.9 20:29:48 10° N 20:33:34 43° ENE 20:37:07 11° SSE
Okean 2 Rocket 4.3 20:29:46 10° NNW 20:33:55 40° W 20:38:01 10° SSW
Cosmos 1741 Rocket 4.5 20:28:50 10° NNW 20:33:58 58° WSW 20:39:04 10° S
Cosmos 2278 Rocket 3.2 20:28:57 10° SW 20:34:29 53° NW 20:40:05 10° NNE
TSX-5 4.3 20:29:10 10° SSW 20:34:37 67° ESE 20:38:51 10° NE
Resurs 01 Rocket 3.0 20:30:54 10° SSW 20:35:00 36° W 20:39:09 10° NNW
STARLINK-1210 4.2 20:31:52 10° W 20:35:59 62° N 20:40:06 10° ENE
STARLINK-1235 3.6 20:32:53 10° WNW 20:36:05 57° N 20:39:17 10° E
Nadezhda 4 Rocket 4.1 20:30:07 10° S 20:36:06 58° E 20:42:06 10° NNE
STARLINK-1111 3.7 20:32:32 10° WNW 20:36:39 63° SSW 20:40:34 11° SE
STARLINK-1200 3.6 20:33:58 10° WSW 20:38:08 86° SSE 20:42:18 10° ENE
Cosmos 1455 Rocket 4.4 20:35:03 10° N 20:38:46 27° ENE 20:42:18 11° SE
STARLINK-1219 4.2 20:36:51 10° W 20:40:58 61° N 20:45:05 10° ENE
STARLINK-1073 3.8 20:37:31 10° WNW 20:41:37 59° SSW 20:45:22 12° SE
SL-8 R/B 4.0 20:37:09 10° W 20:41:48 50° SSW 20:46:17 11° SE
STARLINK-1192 3.6 20:38:58 10° WSW 20:43:07 90° SSE 20:47:17 10° ENE
ATLAS CENTAUR R/B 3.4 20:44:14 10° NW 20:45:22 14° N 20:46:27 10° NNE
STARLINK-1211 4.2 20:41:52 10° W 20:45:59 61° N 20:50:06 10° ENE
Cosmos 371 Rocket 4.1 20:41:34 10° SW 20:46:21 57° WNW 20:51:12 10° NNE
STARLINK-1121 3.9 20:42:30 10° WNW 20:46:35 56° SSW 20:50:08 13° SE
SL-4 R/B 3.8 20:44:40 10° S 20:47:52 18° SE 20:51:06 10° E
STARLINK-1244 3.6 20:43:56 10° WSW 20:48:06 87° NNW 20:52:16 10° ENE
Cosmos 1110 Rocket 4.0 20:43:20 10° S 20:48:27 63° ESE 20:53:34 10° NNE
Terra 2.2 20:44:22 12° SE 20:48:39 53° ENE 20:53:17 10° N
Spot 2 Rocket 4.0 20:45:01 10° S 20:49:57 56° W 20:54:56 10° NNW
Abrixas rocket 3.3 20:47:43 10° W 20:50:11 24° SSW 20:51:50 15° SSE
SPOT 1/Viking Rocket 3.7 20:45:37 10° S 20:50:47 75° WSW 20:55:58 10° NNW
STARLINK-1245 4.2 20:46:51 10° W 20:50:58 60° N 20:55:04 10° E
STARLINK-1106 3.9 20:47:31 10° WNW 20:51:34 52° SSW 20:54:56 14° SE
CARTOSAT-1 3.6 20:47:49 11° SSE 20:51:53 81° ENE 20:56:14 10° NNW
ERBS 4.0 20:49:19 10° W 20:52:25 37° NNW 20:55:33 10° NE
NOSS 8 (H) 4.0 20:49:32 10° SW 20:52:38 68° SE 20:55:43 10° NE
STARLINK-1138 3.7 20:48:55 10° WSW 20:53:05 84° NNW 20:57:15 10° ENE
STARLINK-1234 3.3 20:50:39 10° WNW 20:53:55 65° NNE 20:57:11 10° E
STARLINK-1233 4.2 20:51:49 10° W 20:55:56 60° N 21:00:03 10° E
STARLINK-1112 4.0 20:52:28 10° WNW 20:56:30 49° SSW 20:59:41 15° SE
STARLINK-1143 3.7 20:53:53 10° WSW 20:58:02 81° NNW 21:02:13 10° ENE
STARLINK-1209 3.2 20:56:37 10° WNW 20:59:55 70° NNE 21:03:13 10° E
STARLINK-1204 4.2 20:56:49 10° W 21:00:57 60° N 21:05:03 10° E
STARLINK-1128 4.1 20:57:28 10° WNW 21:01:27 46° SSW 21:04:28 16° SE
STARLINK-1241 3.8 20:58:55 10° WSW 21:03:04 78° NNW 21:07:14 10° ENE
SWAS 4.5 20:59:01 10° NNW 21:03:22 81° ENE 21:06:45 16° SE
Cosmos 1331 Rocket 3.9 21:00:05 10° SSW 21:05:14 77° ESE 21:10:27 10° NNE
STARLINK-1238 4.2 21:01:50 10° W 21:05:57 60° N 21:10:04 10° E
Aureole 2 Rocket 2.9 21:02:59 10° SW 21:06:00 52° WNW 21:08:54 10° NNE
STARLINK-1113 4.2 21:02:28 10° WNW 21:06:25 43° SSW 21:09:15 17° SSE
Cosmos 1733 3.2 21:02:55 10° N 21:06:44 66° E 21:09:32 17° SSE
STARLINK-1239 3.8 21:03:53 10° WSW 21:08:02 76° NNW 21:12:12 10° ENE
Cosmos 1437 Rocket 4.2 21:07:22 10° SW 21:10:55 37° WNW 21:14:32 10° N
STARLINK-1201 4.2 21:06:50 10° W 21:10:57 60° N 21:15:03 10° E
STARLINK-1119 4.3 21:07:29 10° WNW 21:11:24 40° SW 21:14:04 18° SSE
COSMOS 2455 4.5 21:09:45 13° SE 21:11:58 15° ESE 21:15:14 10° ENE
STARLINK-1240 3.9 21:08:52 10° W 21:13:01 74° NNW 21:17:10 10° ENE
Cosmos 1378 3.1 21:09:41 11° S 21:13:19 90° W 21:17:03 10° N
Cosmos 1486 Rocket 4.3 21:08:49 10° NNW 21:14:07 62° ENE 21:18:13 17° SE
Cosmos 1302 Rocket 4.2 21:10:15 10° S 21:15:22 53° ESE 21:20:32 10° NNE
Cosmos 1544 Rocket 4.2 21:11:34 10° N 21:15:43 43° ENE 21:18:39 18° SE
USA 215 3.8 21:09:30 10° E 21:15:55 59° NNE 21:22:20 10° WNW
STARLINK-1206 4.2 21:11:50 10° WNW 21:15:57 61° N 21:20:04 10° E
Cosmos 1271 Rocket 4.3 21:14:22 16° SE 21:16:11 22° E 21:19:15 10° NE
STARLINK-1114 4.4 21:12:28 10° WNW 21:16:20 38° SW 21:18:49 19° SSE
MTI 4.2 21:14:15 10° NNE 21:17:16 42° E 21:18:58 21° SSE
Cosmos 1242 Rocket 3.7 21:15:26 19° SE 21:17:17 29° E 21:20:31 10° NNE
Cosmos 304 Rocket 4.4 21:13:01 10° SW 21:17:44 59° WNW 21:22:30 10° NNE
STARLINK-1203 3.9 21:13:42 10° W 21:17:54 72° NNW 21:22:07 10° ENE
STARLINK-1216 3.9 21:13:51 10° W 21:17:59 72° NNW 21:22:08 10° ENE
Lacrosse 5 4.1 21:16:12 10° W 21:18:16 12° WSW 21:20:20 10° SW
STARLINK-60 4.3 21:20:10 21° SE 21:20:10 21° SE 21:22:13 10° E
STARLINK-1205 4.1 21:16:49 10° WNW 21:20:56 61° N 21:25:03 10° E
STARLINK-1130 (DARKSAT) 4.5 21:17:29 10° WNW 21:21:17 35° SW 21:23:37 19° SSE
Cosmos 1092 Rocket 3.9 21:15:31 10° S 21:21:36 79° E 21:27:47 10° NNE
NOSS 2-2 (D) 3.1 21:18:53 10° SW 21:22:28 82° SE 21:26:37 10° NE
STARLINK-1237 3.9 21:18:50 10° W 21:22:59 70° NNW 21:27:08 10° ENE
CENTAUR R/B 3.3 21:15:26 10° NW 21:23:20 82° NE 21:31:08 14° SE
STARLINK-1218 4.1 21:21:49 10° WNW 21:25:57 62° N 21:30:03 10° E
Cosmos 1707 4.2 21:24:35 17° SE 21:26:17 23° E 21:29:23 10° NE
ATLAS 3B R/B 3.4 21:20:00 10° NW 21:26:34 52° NE 21:33:19 10° ESE
SL-27 R/B 2.4 21:23:44 10° NNW 21:27:21 89° WSW 21:29:28 23° SSE
STARLINK-1202 4.0 21:23:50 10° W 21:27:58 68° NNW 21:32:07 10° ENE
NOSS 3-2 (C) 4.1 21:21:11 10° NW 21:28:35 89° SW 21:35:36 16° SE
Cosmos 1766 3.8 21:25:48 10° NNW 21:29:42 54° W 21:32:47 15° S
Cosmos 1726 3.9 21:27:50 10° NNE 21:30:45 21° ENE 21:32:50 14° ESE
STARLINK-1254 4.1 21:26:48 10° WNW 21:30:56 63° N 21:35:03 10° E
Cosmos 1867 3.9 21:28:09 10° NW 21:33:36 62° NE 21:38:06 15° ESE
ALOS 2 4.5 21:30:24 10° ESE 21:33:37 21° ENE 21:36:53 10° NNE
COSMOS 2487 4.2 21:31:58 10° N 21:34:51 23° ENE 21:37:03 14° ESE
STARLINK-1231 4.1 21:31:47 10° WNW 21:35:55 64° N 21:40:02 10° E
STARLINK-1246 4.0 21:33:51 10° W 21:37:58 65° N 21:42:07 10° ENE
Cosmos 1943 Rocket 2.1 21:33:01 10° SSW 21:38:35 80° ESE 21:44:12 10° NNE
Cosmos 2297 4.5 21:33:17 10° SW 21:38:52 55° NW 21:44:31 10° NNE
NOSS 2-2 (E) 3.8 21:36:13 10° WSW 21:39:49 61° NW 21:44:08 10° NE
NOSS 3-4 (A) 4.1 21:36:32 18° SSE 21:40:07 33° ESE 21:45:39 10° NE
NOSS 3-4 (C) 4.1 21:36:40 18° SSE 21:40:14 33° ESE 21:45:45 10° NE
STARLINK-1232 4.0 21:36:47 10° WNW 21:40:55 65° N 21:45:03 10° E
Cosmos 2082 Rocket 4.5 21:39:03 10° WNW 21:41:59 14° W 21:44:55 10° SW
SeaSat 1 3.5 21:38:14 10° NE 21:42:29 28° ESE 21:44:34 21° SSE
STARLINK-1224 4.1 21:38:50 10° W 21:42:57 64° N 21:47:05 10° ENE
EO 1 Del DPAF 4.2 21:39:37 10° NNE 21:43:02 31° E 21:44:29 23° SE
STARLINK-1208 4.0 21:41:45 10° WNW 21:45:53 66° N 21:50:01 10° E
STARLINK-1225 4.1 21:43:50 10° W 21:47:58 63° N 21:52:06 10° ENE
Cosmos 1975 Rocket 3.2 21:44:36 14° SSW 21:48:21 72° WNW 21:52:46 10° N
STARLINK-1212 2.7 21:45:59 10° WNW 21:49:07 84° SSW 21:50:47 25° ESE
STARLINK-1105 2.7 21:46:28 10° WNW 21:49:35 84° SSW 21:51:13 25° ESE
STARLINK-1247 2.7 21:47:20 10° WNW 21:50:28 83° SSW 21:52:06 25° ESE
Meteor 2-10 4.4 21:45:38 10° N 21:50:34 51° ENE 21:53:43 21° SE
STARLINK-1271 3.9 21:46:46 10° WNW 21:50:55 67° N 21:55:03 10° E
STARLINK-1227 2.7 21:47:50 10° WNW 21:50:57 83° SSW 21:52:32 26° ESE
BREEZE-M DEB (TANK) 3.5 21:37:59 10° WSW 21:51:39 69° SSE 21:55:22 10° E
STARLINK-1226 2.7 21:48:41 10° WNW 21:51:48 82° SSW 21:53:23 26° ESE
Cosmos 292 Rocket 3.8 21:48:20 18° S 21:51:54 65° ESE 21:56:44 10° NNE
BREEZE-M DEB (TANK) 2.8 21:48:25 10° W 21:52:22 75° S 21:56:11 10° ESE
STARLINK-1215 2.7 21:49:35 10° WNW 21:52:42 81° SSW 21:54:16 27° ESE
STARLINK-1230 4.1 21:48:50 10° W 21:52:57 62° N 21:57:04 10° ENE
S3M 4.2 21:47:49 10° N 21:53:57 63° ENE 21:58:10 21° SSE
STARLINK-1217 2.7 21:51:24 10° WNW 21:54:31 79° SSW 21:56:00 28° ESE
Cosmos 2369 Rocket 2.1 21:49:06 10° SSW 21:54:46 78° ESE 22:00:26 10° NNE
STARLINK-1229 2.7 21:52:18 10° WNW 21:55:26 78° SSW 21:56:54 28° ESE
STARLINK-1154 3.9 21:51:45 10° WNW 21:55:54 69° NNE 22:00:02 10° E
STARLINK-1270 2.7 21:53:12 10° WNW 21:56:19 78° SSW 21:57:45 29° ESE
Aureole 3 Rocket 4.3 21:51:33 10° N 21:57:38 87° W 22:03:54 19° S
STARLINK-1243 4.1 21:53:50 10° W 21:57:58 61° N 22:02:05 10° ENE
SPOT 5 4.4 21:53:31 11° SSW 21:58:00 33° W 22:02:51 10° NNW
STARLINK-1189 2.7 21:55:00 10° WNW 21:58:07 76° SSW 21:59:28 31° ESE
STARLINK-1188 2.7 21:55:54 10° WNW 21:59:02 75° SSW 22:00:22 31° ESE
STARLINK-1187 2.8 21:57:01 10° WNW 22:00:06 68° SSW 22:01:14 34° SE
Cosmos 1340 Rocket 3.6 21:56:32 10° N 22:00:26 42° ENE 22:02:31 23° SE
ATLAS CENTAUR R/B 2.5 21:59:35 25° SE 22:00:33 28° ESE 22:04:07 10° ENE
STARLINK-1197 3.9 21:56:43 10° WNW 22:00:51 71° NNE 22:05:00 10° E
STARLINK-1191 2.7 21:58:21 10° WNW 22:01:27 72° SSW 22:02:39 34° SE
Aureole 3 4.3 21:59:29 10° NNE 22:02:17 25° ENE 22:03:24 20° ESE
STARLINK-1221 2.7 21:59:18 10° WNW 22:02:24 71° SSW 22:03:34 34° SE
STARLINK-1236 4.2 21:58:49 10° W 22:02:56 61° N 22:07:03 10° ENE
STARLINK-1222 2.7 22:00:09 10° WNW 22:03:15 71° SSW 22:04:23 35° SE
Thor Agena Rocket 3.7 21:58:39 10° NNE 22:03:55 61° ESE 22:07:12 23° S
STARLINK-1214 2.7 22:01:03 10° WNW 22:04:09 70° SSW 22:05:16 35° SE
NOSS 2-2 (C) 4.3 22:00:59 10° WSW 22:04:31 47° NW 22:08:41 10° NE
Cosmos 1025 Rocket 3.1 22:02:57 26° SSE 22:05:11 62° E 22:09:28 10° NNE
EXPRESS MD2 4.1 22:01:43 10° WSW 22:05:43 80° S 22:14:12 10° E
Okean 2 4.5 22:02:00 11° SW 22:05:47 42° WNW 22:09:46 10° N
STARLINK-1198 3.8 22:01:42 10° WNW 22:05:51 73° NNE 22:09:59 10° E
Cosmos 2026 Rocket 4.3 22:00:23 13° SSW 22:06:08 70° WNW 22:12:32 10° N
Cosmos 1553 Rocket 4.0 22:01:10 10° N 22:07:29 83° W 22:11:43 22° S
BREEZE M DEB (TANK) 1.6 22:04:52 10° WSW 22:07:59 64° S 22:08:33 42° ESE
ATLAS 2AS CENTAUR R/B 3.1 22:00:30 10° SSW 22:08:13 58° ESE 22:15:57 10° NE
Cosmos 1656 Rocket 3.9 22:04:50 21° S 22:08:26 54° ESE 22:13:51 10° NE
Cosmos 1953 2.5 22:04:52 10° N 22:08:50 59° ENE 22:10:41 29° SSE
BREEZE-M DEB (TANK) 4.3 21:56:02 10° WNW 22:09:19 55° SW 22:11:56 24° SE
Cosmos 1470 3.0 22:06:05 10° NNW 22:09:55 61° W 22:11:51 27° SSW
STARLINK-1228 3.3 22:06:31 10° WNW 22:09:58 55° SSW 22:11:08 35° SSE
STARLINK-1199 3.8 22:06:42 10° WNW 22:10:51 75° NNE 22:15:00 10° E
STARLINK-1235 3.1 22:09:15 10° WNW 22:12:26 53° SSW 22:13:12 40° SSE
STARLINK-1269 4.2 22:08:49 10° W 22:12:56 60° N 22:17:03 10° E
APEX 4.2 22:06:47 11° SSW 22:12:57 80° ESE 22:18:11 10° NNE
Cosmos 2292 Rocket 4.0 22:13:23 27° SE 22:14:23 31° E 22:17:16 10° NNE
Cosmos 968 Rocket 3.8 22:09:32 10° NNW 22:14:37 57° WSW 22:17:31 24° S
STARLINK-1210 3.7 22:11:40 10° WNW 22:15:50 77° NNE 22:19:59 10° ESE
Cosmos 1455 Rocket 4.2 22:12:42 10° NNW 22:16:42 36° W 22:19:25 18° SSW
STARLINK-1200 4.2 22:13:48 10° W 22:17:54 60° N 22:22:01 10° E
Cosmos 1655 Rocket 4.0 22:15:01 22° S 22:19:07 72° E 22:25:24 10° NNE
SL-4 R/B 1.6 22:20:18 34° ENE 22:20:18 34° ENE 22:22:17 10° N
STARLINK-1219 3.7 22:16:38 10° WNW 22:20:48 80° NNE 22:24:52 10° ESE
ATLAS 5 CENTAUR R/B 1.8 22:21:46 32° S 22:22:41 41° SE 22:24:53 10° ENE
STARLINK-1192 4.2 22:18:48 10° W 22:22:55 60° N 22:27:02 10° E
Cosmos 1758 3.9 22:19:27 10° NNW 22:23:24 51° W 22:25:25 26° SSW
STARLINK-52 4.4 22:26:27 24° ESE 22:26:27 24° ESE 22:28:11 10° E
STARLINK-1211 3.6 22:21:38 10° WNW 22:25:48 83° NNE 22:29:40 12° ESE
Cosmos 2228 3.9 22:22:31 10° N 22:26:31 38° ENE 22:28:36 23° SE
Terra 3.6 22:23:15 11° SW 22:26:42 23° W 22:30:29 10° NW
SL-4 R/B 2.4 22:22:11 10° SW 22:26:54 57° SSE 22:31:39 10° ENE
STARLINK-1244 4.2 22:23:47 10° W 22:27:54 60° N 22:32:01 10° E
STARLINK-1234 3.5 22:27:04 10° WNW 22:30:08 39° SSW 22:30:16 38° SSW
STARLINK-1245 3.6 22:26:37 10° WNW 22:30:47 86° NNE 22:34:26 13° ESE
STARLINK-1138 4.2 22:28:47 10° WNW 22:32:54 61° N 22:37:01 10° E
In-Cosmos 22 4.2 22:30:05 27° S 22:32:55 64° E 22:38:09 10° NNE
Cosmos 1503 Rocket 4.4 22:29:34 10° NNW 22:34:45 55° WSW 22:37:35 26° S
STARLINK-1233 3.5 22:31:34 10° WNW 22:35:44 89° NNE 22:39:12 15° ESE
STARLINK-1209 3.8 22:33:16 10° W 22:36:13 34° SW 22:36:13 34° SW
Cosmos 2266 Rocket 3.9 22:33:43 25° S 22:37:24 73° E 22:43:26 10° NNE
STARLINK-1143 4.1 22:33:45 10° WNW 22:37:52 61° N 22:42:00 10° E
STARLINK-1204 3.5 22:36:34 10° WNW 22:40:43 88° SSW 22:43:59 16° ESE
SJ 16-02 3.8 22:39:33 10° N 22:42:36 18° NE 22:45:37 10° E
STARLINK-1241 4.1 22:38:47 10° WNW 22:42:55 62° N 22:47:02 10° E
Cosmos 2263 4.5 22:39:18 11° SW 22:44:43 66° WNW 22:50:20 10° NNE
STARLINK-1238 3.5 22:41:34 10° WNW 22:45:44 84° SSW 22:48:47 18° ESE
Meteor 2-15 Rocket 4.5 22:41:04 10° N 22:47:16 78° ENE 22:50:55 26° SSE
STARLINK-1239 4.1 22:43:46 10° WNW 22:47:53 62° N 22:52:01 10° E
Cosmos 1536 Rocket 4.0 22:45:44 24° SSW 22:48:12 57° WNW 22:52:31 10° N
Helios 1B rocket 4.5 22:46:16 10° NE 22:48:48 16° E 22:50:09 14° ESE
Cosmos 1674 2.9 22:48:20 37° SSE 22:49:30 53° E 22:53:12 10° NNE
STARLINK-1201 3.5 22:46:32 10° WNW 22:50:42 80° SSW 22:53:33 19° ESE
Cosmos 1271 Rocket 4.0 22:49:29 17° SW 22:51:58 36° WNW 22:55:39 10° N
STARLINK-1240 4.1 22:48:44 10° WNW 22:52:52 63° N 22:56:59 10° E
Cosmos 883 Rocket 4.5 22:49:14 10° NNW 22:55:23 79° W 22:58:57 27° S
STARLINK-60 2.8 22:52:20 10° WSW 22:55:30 90° SSE 22:58:43 10° ENE
STARLINK-1206 3.5 22:51:32 10° WNW 22:55:41 77° SSW 22:58:21 21° ESE
COSMOS 2455 2.8 22:52:50 22° SSW 22:56:53 74° ESE 23:02:56 10° NE
Cosmos 2219 4.1 22:51:53 10° NNW 22:57:22 46° NE 23:02:17 12° ESE
STARLINK-1216 4.0 22:53:43 10° WNW 22:57:51 64° N 23:01:59 10° E
STARLINK-1203 4.1 22:53:48 10° WNW 22:57:59 65° N 23:02:10 10° E
USA 215 3.2 22:52:56 13° SE 22:58:51 75° SW 23:05:26 10° WNW
STARLINK-1205 3.5 22:56:30 10° WNW 23:00:38 73° SSW 23:03:07 23° SE
Cosmos 2297 Rocket 3.2 22:56:14 10° NNW 23:01:37 42° NE 23:06:57 10° ESE
Cosmos 1707 4.0 22:59:44 19° SW 23:02:00 34° WNW 23:05:35 10° N
STARLINK-1237 4.0 22:58:43 10° WNW 23:02:51 65° N 23:06:59 10° E
Helios 1A 3.0 23:01:35 33° SSE 23:03:25 77° ENE 23:07:37 10° NNW
Lacrosse 4 Rocket 3.9 23:01:47 10° NNW 23:05:08 21° NE 23:08:25 10° E
STARLINK-1218 3.5 23:01:30 10° WNW 23:05:38 69° SSW 23:07:55 25° SE
Cosmos 1726 3.2 23:02:40 10° NNW 23:06:04 34° W 23:07:20 26° SW
STARLINK-1202 4.0 23:03:42 10° WNW 23:07:50 67° N 23:11:59 10° E
Cosmos 1174 3.4 23:06:36 36° SW 23:07:52 84° NW 23:11:47 10° NE
Timation 2 Rocket 3.9 23:02:43 10° NNW 23:09:07 85° WSW 23:12:55 25° SSE
ALOS 2 2.9 23:07:47 32° SSW 23:09:36 55° W 23:13:56 10° NNW
Cosmos 2058 Rocket 3.4 23:05:27 10° N 23:09:51 57° ENE 23:11:58 28° SE
COSMOS 2487 3.5 23:06:50 10° NW 23:09:56 30° WSW 23:10:32 28° SW
STARLINK-1254 3.5 23:06:29 10° WNW 23:10:36 66° SSW 23:12:41 27° SE
CENTAUR R/B 4.0 23:06:35 10° NW 23:13:43 35° WSW 23:18:17 22° SSW
STARLINK-1372 4.4 23:15:08 29° SE 23:15:08 29° SE 23:17:59 10° E
STARLINK-1231 3.6 23:11:27 10° WNW 23:15:34 62° SSW 23:17:27 30° SE
Meteor 2-5 Rocket 3.8 23:14:12 29° S 23:17:05 68° E 23:22:43 10° NNE
ATLAS 3B R/B 3.0 23:10:48 10° NW 23:17:21 52° WSW 23:21:09 26° S
STARLINK-1246 3.9 23:13:41 10° WNW 23:17:50 70° NNE 23:21:59 10° E
STARLINK-1378 4.3 23:18:28 31° SE 23:18:28 31° SE 23:21:31 10° E
Cosmos 1606 Rocket 3.7 23:15:36 10° NNW 23:19:53 62° W 23:21:36 34° SSW
SeaSat 1 3.0 23:15:25 10° NNE 23:20:15 55° NW 23:24:20 14° SW
SL-14 R/B 3.9 23:19:11 32° SE 23:20:24 43° E 23:24:04 10° NNE
STARLINK-1232 3.6 23:16:27 10° WNW 23:20:32 58° SSW 23:22:15 32° SE
FALCON 9 DEB 3.1 23:20:07 51° S 23:20:35 56° SSE 23:23:58 10° ENE
STARLINK-1379 4.2 23:21:51 33° SE 23:21:51 33° SE 23:25:03 10° E
STARLINK-1224 3.8 23:18:40 10° WNW 23:22:49 72° NNE 23:26:58 10° E
Cosmos 1943 Rocket 4.2 23:18:25 10° W 23:22:59 25° NW 23:27:37 10° NNE
STARLINK-1329 4.1 23:23:14 34° SE 23:23:14 34° SE 23:26:32 10° E
Cosmos 2098 Rocket 4.4 23:20:08 24° SSW 23:24:52 80° W 23:32:23 10° N
STARLINK-29 2.8 23:24:02 32° WSW 23:25:24 85° SSE 23:28:37 10° ENE
STARLINK-1208 3.7 23:21:25 10° WNW 23:25:29 55° SSW 23:27:00 34° SSE
STARLINK-1362 4.0 23:26:40 36° SE 23:26:40 36° SE 23:30:08 10° ENE
SL-16 R/B 4.4 23:22:11 10° ESE 23:27:03 25° NE 23:31:57 10° N
ATLAS CENTAUR R/B 1.3 23:25:43 10° NW 23:27:48 62° NNE 23:31:35 10° ESE
STARLINK-1225 3.8 23:23:40 10° WNW 23:27:49 74° NNE 23:31:58 10° E
STARLINK-1373 3.9 23:30:05 37° SSE 23:30:10 37° SE 23:33:44 10° ENE
STARLINK-1271 3.7 23:26:26 10° WNW 23:30:28 51° SSW 23:31:48 35° SSE
NOSS 3-4 (A) 3.8 23:24:38 10° WSW 23:30:37 65° NW 23:37:06 10° NE
NOSS 3-4 (C) 3.8 23:24:43 10° WSW 23:30:43 65° NW 23:37:13 10° NE
STARLINK-1365 3.9 23:31:12 39° SSE 23:31:24 39° SSE 23:35:00 10° ENE
RESURS DK-1 2.3 23:29:48 36° SSW 23:31:27 81° ESE 23:35:37 10° NNE
STARLINK-1230 3.7 23:28:38 10° WNW 23:32:48 77° NNE 23:36:57 10° ESE
Cosmos 2315 Rocket 4.4 23:27:29 10° NNW 23:33:29 53° W 23:36:59 25° SSW
STARLINK-1390 3.8 23:33:34 39° SSE 23:33:47 39° SSE 23:37:22 10° ENE
STARLINK-1154 3.8 23:31:25 10° WNW 23:35:26 48° SSW 23:36:35 37° SSE
Cosmos 2084 3.5 23:33:37 34° SSW 23:35:27 65° SE 23:39:54 10° NE
BREEZE-M R/B 3.9 23:31:44 17° SW 23:36:32 40° SSE 23:40:10 10° E
Cosmos 1626 2.1 23:36:00 41° SSE 23:37:09 71° E 23:40:52 10° NNE
STARLINK-1243 3.7 23:33:38 10° WNW 23:37:48 79° NNE 23:41:57 10° ESE
Cosmos 2227 Rocket 2.6 23:32:59 10° NNW 23:38:40 63° ENE 23:43:30 14° SE
ATLAS CENTAUR R/B 2.2 23:35:42 13° WSW 23:39:20 48° NW 23:43:16 10° NNE
Cosmos 2369 Rocket 4.1 23:34:43 10° W 23:39:25 26° NW 23:44:07 10° NNE
Okean 1-7 Rocket 3.6 23:37:39 34° S 23:39:35 83° E 23:44:10 10° NNE
STARLINK-1197 3.9 23:36:23 10° WNW 23:40:22 45° SSW 23:41:21 37° S
Cosmos 1908 4.4 23:37:56 10° NNW 23:41:20 31° W 23:42:29 25° SW
CZ-4 R/B 4.1 23:36:58 10° NNE 23:41:42 56° E 23:43:50 30° SSE
STARLINK-1236 3.6 23:38:36 10° WNW 23:42:46 82° NNE 23:46:55 10° ESE
Nadezhda 2 Rocket 4.5 23:39:44 27° SSW 23:43:19 82° W 23:49:30 10° N
STARLINK-1198 4.0 23:41:23 10° WNW 23:45:19 42° SSW 23:46:07 38° S
Landsat 4 3.8 23:45:54 10° N 23:49:36 65° WNW 23:51:00 35° SW
STARLINK-1199 4.0 23:46:24 10° WNW 23:50:17 40° SW 23:50:55 37° SSW
STARLINK-1269 3.6 23:48:34 10° WNW 23:52:45 88° NNE 23:56:53 10° ESE
Meteor 2-21 Rocket 4.4 23:50:06 27° S 23:53:42 86° E 23:59:57 10° N
STARLINK-1210 4.1 23:51:24 10° WNW 23:55:14 37° SW 23:55:41 36° SSW
